VK4SSH Weather Reports


time (UTC)temp
C
wind
direction
speed
KPH
gust
KPH
rain 1hr
cm
rain 24hr
cm
rain mn
cm
humidity
%
barometer
mb
20260505140530 20 180 0.0 3.2 0.00 0.00 0.00 95
20260505124530 19 0.0 0.0 0.00 0.00 0.00 94
20260505123530 19 0.0 0.0 0.00 0.00 0.00 94
20260505122530 20 0.0 0.0 0.00 0.00 0.00 94
20260505121530 19 248 0.0 1.6 0.00 0.00 0.00 94
20260505120530 19 0.0 0.0 0.00 0.00 0.00 95
20260505115530 19 0.0 0.0 0.00 0.00 0.00 95
20260505114530 19 0.0 0.0 0.00 0.00 0.00 95
20260505113530 20 0.0 0.0 0.00 0.00 0.00 94
20260505112530 20 0.0 0.0 0.00 0.00 0.00 95
20260505111530 19 0.0 0.0 0.00 0.00 0.00 95
20260505110529 19 0.0 0.0 0.00 0.00 0.00 96
20260505101529 20 0.0 0.0 0.00 0.00 0.00 95
20260505100530 20 0.0 0.0 0.00 0.00 0.00 95
20260505095530 20 0.0 0.0 0.00 0.00 0.00 95
20260505094530 20 0.0 0.0 0.00 0.00 0.00 95
20260505093530 20 0.0 0.0 0.00 0.00 0.00 94
20260505092530 20 0.0 0.0 0.00 0.00 0.00 94
20260505091530 20 0.0 0.0 0.00 0.00 0.00 94
20260505090530 20 0.0 0.0 0.00 0.00 0.00 93
20260505085529 20 0.0 0.0 0.00 0.00 0.00 93
20260505084529 21 0.0 0.0 0.00 0.00 0.00 92
20260505083530 21 0.0 0.0 0.00 0.00 0.00 92
20260505082529 21 0.0 0.0 0.00 0.00 0.00 91
20260505081525 21 0.0 0.0 0.00 0.00 0.00 91
20260505080529 21 0.0 0.0 0.00 0.00 0.00 90
20260505075529 21 0.0 0.0 0.00 0.00 0.00 90
20260505074530 21 0.0 0.0 0.00 0.00 0.00 89
20260505073529 22 0.0 0.0 0.00 0.00 0.00 88
20260505072530 22 0.0 0.0 0.00 0.00 0.00 87
20260505071529 22 202 0.0 1.6 0.00 0.00 0.00 85
20260505070529 22 0.0 0.0 0.00 0.00 0.00 83
20260505065529 23 0.0 0.0 0.00 0.00 0.00 80
20260505064529 23 135 0.0 1.6 0.00 0.00 0.00 78
20260505063529 23 158 0.0 1.6 0.00 0.00 0.00 76
20260505062529 23 0.0 0.0 0.00 0.00 0.00 75
20260505061529 24 158 0.0 3.2 0.00 0.00 0.00 74
20260505060529 24 0.0 0.0 0.00 0.00 0.00 74
20260505055529 24 0.0 0.0 0.00 0.00 0.00 74
20260505054529 25 0.0 0.0 0.00 0.00 0.00 73
20260505053529 25 0.0 0.0 0.00 0.00 0.00 72
20260505052529 25 135 0.0 3.2 0.00 0.00 0.00 72
20260505051529 26 112 0.0 3.2 0.00 0.00 0.00 71
20260505050529 26 112 0.0 3.2 0.00 0.00 0.00 70
20260505041529 26 112 0.0 3.2 0.00 0.00 0.00 70
20260505040529 26 112 0.0 1.6 0.00 0.00 0.00 70
20260505035529 26 0.0 0.0 0.00 0.00 0.00 70
20260505034529 26 112 0.0 1.6 0.00 0.00 0.00 70
20260505033529 26 158 0.0 1.6 0.00 0.00 0.00 66
20260505032529 26 0.0 0.0 0.00 0.00 0.00 67
20260505031529 26 158 0.0 3.2 0.00 0.00 0.00 68
20260505030529 26 248 0.0 3.2 0.00 0.00 0.00 67
20260505025530 26 158 0.0 3.2 0.00 0.00 0.00 67
20260505024529 26 158 0.0 1.6 0.00 0.00 0.00 65
20260505023529 26 158 0.0 3.2 0.00 0.00 0.00 64
20260505022529 26 158 0.0 3.2 0.00 0.00 0.00 67
20260505021529 26 158 1.6 4.8 0.00 0.00 0.00 69
20260505020529 26 158 1.6 8.0 0.00 0.00 0.00 68
20260505015529 26 112 0.0 3.2 0.00 0.00 0.00 66
20260505014529 26 112 0.0 1.6 0.00 0.00 0.00 66
20260505013529 25 129 1.6 4.8 0.00 0.00 0.00 70
20260505012529 25 112 0.0 3.2 0.00 0.00 0.00 71
20260505011529 25 135 1.6 4.8 0.00 0.00 0.00 71
20260505010529 25 75 0.0 3.2 0.00 0.00 0.00 71
20260505005529 27 338 3.2 4.8 0.00 0.00 0.00 69
20260505004529 27 135 0.0 3.2 0.00 0.00 0.00 65
20260505003529 27 135 0.0 3.2 0.00 0.00 0.00 64
20260505002529 27 135 1.6 4.8 0.00 0.00 0.00 65
20260505001529 27 151 1.6 6.4 0.00 0.00 0.00 69
20260505000529 26 135 1.6 3.2 0.00 0.00 0.00 68
20260504235529 26 135 1.6 3.2 0.00 0.00 0.00 72
20260504234529 26 112 0.0 1.6 0.00 0.00 0.00 74
20260504233529 25 112 0.0 3.2 0.00 0.00 0.00 74
20260504232529 24 116 1.6 4.8 0.00 0.00 0.00 79
20260504231529 23 135 0.0 3.2 0.00 0.00 0.00 82
20260504230529 22 141 1.6 6.4 0.00 0.00 0.00 84
20260504225529 22 137 1.6 6.4 0.00 0.00 0.00 87
20260504224529 21 135 0.0 1.6 0.00 0.00 0.00 88
20260504223529 21 149 3.2 6.4 0.00 0.00 0.00 89
20260504222529 21 135 0.0 3.2 0.00 0.00 0.00 91
20260504221529 20 112 0.0 1.6 0.00 0.00 0.00 93
20260504220529 20 112 0.0 1.6 0.00 0.00 0.00 95
20260504215529 19 0.0 0.0 0.00 0.00 0.00 96
20260504214529 18 0.0 0.0 0.00 0.00 0.00 97
20260504213529 18 112 0.0 3.2 0.00 0.00 0.00 98
20260504212529 18 112 0.0 3.2 0.00 0.00 0.00 98
20260504211529 18 135 0.0 3.2 0.00 0.05 0.00 98
20260504210529 18 135 0.0 3.2 0.00 0.13 0.00 98
20260504205529 18 0.0 0.0 0.00 0.13 0.00 98
20260504204529 18 0.0 0.0 0.00 0.13 0.00 98
20260504203529 18 0.0 0.0 0.00 0.13 0.00 98
20260504202529 18 135 0.0 1.6 0.00 0.13 0.00 98
20260504201529 18 102 0.0 3.2 0.00 0.13 0.00 98
20260504200529 18 41 0.0 3.2 0.00 0.13 0.00 98
20260504195529 18 0.0 0.0 0.00 0.13 0.00 98
20260504194529 18 0.0 0.0 0.00 0.13 0.00 98
20260504193529 18 22 0.0 3.2 0.00 0.13 0.00 99
20260504192529 18 0.0 0.0 0.00 0.13 0.00 98
20260504191529 18 45 0.0 1.6 0.00 0.13 0.00 98
20260504190529 18 45 0.0 3.2 0.00 0.13 0.00 98
20260504185529 18 0 0.0 3.2 0.00 0.13 0.00 98
20260504184529 18 0.0 0.0 0.00 0.13 0.00 98
20260504183529 18 0.0 0.0 0.00 0.13 0.00 98
20260504182529 18 0.0 0.0 0.00 0.13 0.00 98
20260504181529 18 0.0 0.0 0.00 0.13 0.00 98
20260504180529 18 0 0.0 1.6 0.00 0.13 0.00 98
20260504175529 18 0.0 0.0 0.00 0.13 0.00 98
20260504174529 18 0.0 0.0 0.00 0.13 0.00 98
20260504173529 19 0 0.0 3.2 0.00 0.13 0.00 98
20260504172529 19 0.0 0.0 0.00 0.13 0.00 98
20260504171529 19 0.0 0.0 0.00 0.13 0.00 98
20260504170529 19 0 0.0 3.2 0.00 0.13 0.00 98
20260504150529 18 0.0 0.0 0.00 0.13 0.00 98